Theta_e
301 301 301 301 301 301 302 301 299 299 300 301 301 300 301 301 301 301 301 301 301 301 302 302 302 301 301 301 301 300 299 298 298 297 296 295 296 296 296 296 296 296 296 296 296 296 297 297 298 298 299 298 298 297 297 297 296 296 296 296 296 295 295 294 294 294 294 294 295
302 300 299 297 297 299 301 301 300 300 301 302 302 302 301 302 301 301 301 301 302 302 303 304 303 302 301 300 299 299 298 297 297 296 296 296 296 296 296 296 296 295 295 295 296 297 298 297 298 298 298 298 298 298 298 298 298 297 297 296 297 297 297 296 296 295 295 295 295
302 301 300 300 301 302 302 302 301 301 301 302 302 302 302 302 302 303 302 302 302 303 305 306 303 302 301 299 299 298 297 297 296 296 295 296 296 296 296 296 295 295 295 296 297 297 298 298 298 298 299 299 299 299 299 299 298 298 297 297 298 298 298 298 297 297 296 297 296
301 301 302 302 302 302 301 302 302 302 302 303 303 303 302 303 305 305 304 304 305 306 305 303 302 301 300 298 297 297 297 295 295 295 295 296 296 296 296 296 296 296 297 297 297 297 298 298 299 299 299 299 298 298 299 299 298 298 298 297 298 297 297 297 297 297 297 297 297
301 301 302 302 302 302 302 302 302 303 303 303 303 304 303 304 304 303 304 305 306 305 303 300 300 299 298 298 297 296 296 295 294 295 296 296 297 297 297 296 296 296 296 296 297 297 297 298 298 299 298 298 298 298 297 297 297 297 296 297 297 297 297 296 297 297 297 297 297
300 300 300 301 301 302 303 303 303 302 302 303 302 302 303 304 304 304 303 303 302 301 300 298 298 297 297 298 297 297 296 296 296 296 297 297 297 297 297 296 296 296 296 296 296 296 296 296 297 297 297 297 296 296 295 295 295 295 295 296 296 296 296 297 297 297 297 297 296
301 300 300 300 300 301 301 302 302 301 300 300 299 300 300 301 302 302 301 300 300 300 299 298 298 298 298 298 298 297 297 297 297 297 297 297 297 296 296 295 295 295 295 295 295 295 295 295 295 295 295 295 295 295 294 294 294 294 294 294 295 295 296 296 296 297 296 294 293
301 301 301 301 301 301 301 301 301 301 300 300 299 300 300 300 301 301 301 300 299 299 299 299 299 299 299 299 298 298 298 298 297 297 296 296 296 295 295 295 294 294 294 294 293 293 293 294 294 293 293 293 294 293 292 292 292 292 292 292 293 294 294 295 295 295 294 293 292
302 302 302 302 301 301 301 300 300 300 301 301 300 300 300 299 300 301 300 300 299 299 299 299 299 299 299 299 298 298 298 298 296 295 295 295 295 295 294 294 294 293 293 293 293 292 292 293 292 292 292 292 292 292 292 291 291 291 291 291 292 292 292 292 292 292 292 292 292
302 302 303 302 302 301 300 300 300 300 300 301 301 301 300 298 299 300 300 300 299 299 299 299 299 300 300 298 297 296 296 296 295 294 294 294 294 294 294 294 293 293 293 293 292 292 291 292 291 291 291 291 290 290 290 290 290 289 289 290 290 289 289 289 289 290 290 290 291
301 302 302 302 302 301 301 301 300 300 300 301 302 301 301 299 299 300 300 300 299 299 299 299 300 299 298 297 296 296 296 296 295 294 294 294 293 293 293 293 293 292 292 292 292 292 291 291 290 290 290 290 289 290 289 289 288 288 288 288 288 288 288 288 288 288 289 289 289
300 301 301 301 301 301 301 301 301 301 301 301 301 301 301 301 300 299 298 298 298 298 298 298 297 296 295 296 296 295 295 295 294 293 293 293 293 293 293 293 293 292 292 292 291 291 291 290 290 289 289 289 289 289 289 288 288 287 287 288 287 287 287 287 287 288 288 288 288
299 299 300 300 300 300 300 301 301 301 301 300 300 300 300 300 299 298 297 296 296 296 296 296 295 295 295 295 294 294 294 293 293 292 292 292 292 292 292 292 292 291 291 291 291 290 290 289 289 289 288 288 289 288 288 288 287 287 287 287 287 287 287 288 288 288 287 287 288
298 298 298 298 298 299 299 299 299 299 299 299 299 299 299 299 298 297 296 295 295 294 295 295 294 294 294 294 293 293 293 292 292 292 292 292 292 292 292 291 291 290 290 290 289 289 289 288 288 288 288 288 287 287 287 287 287 287 288 287 287 288 288 288 289 289 288 288 288
296 296 296 297 297 297 297 297 298 298 298 298 298 299 299 300 298 297 297 296 295 295 295 294 294 293 293 293 292 292 291 291 291 291 291 291 291 291 291 290 290 289 289 289 288 288 288 288 288 288 287 287 286 286 286 286 287 287 287 287 287 288 288 288 288 288 288 288 288
295 295 295 296 295 296 296 296 297 297 298 298 299 300 300 299 299 298 297 297 296 295 295 294 294 293 293 292 292 292 291 290 291 290 290 290 290 290 290 289 288 288 287 287 287 287 287 288 288 287 287 286 285 285 285 285 286 286 286 286 286 287 287 287 286 286 287 287 287
294 294 295 295 294 295 295 295 297 298 298 298 299 299 299 298 298 298 297 297 296 295 294 294 294 293 293 292 291 291 290 290 290 289 289 289 289 289 288 288 287 287 286 286 286 286 286 286 287 287 286 285 285 284 284 284 284 284 284 284 284 285 285 284 284 284 284 284 284
294 294 294 294 294 294 295 296 297 297 297 297 297 297 297 297 297 297 296 296 296 295 294 293 293 293 292 291 290 290 289 289 288 288 288 288 288 288 287 286 286 286 286 286 286 285 285 285 286 285 285 284 283 283 283 282 282 282 282 282 282 283 283 282 282 282 282 282 283
293 293 294 294 294 295 296 296 296 295 295 295 295 295 295 295 295 295 295 295 295 295 294 294 293 292 291 290 289 289 288 288 288 288 288 288 287 287 286 285 285 285 285 285 285 285 285 285 285 284 284 283 282 282 282 281 281 281 281 281 281 281 281 281 281 282 282 282 283
293 293 294 295 296 296 296 296 295 294 294 294 294 294 294 295 295 295 295 295 295 294 293 292 291 290 290 289 289 288 288 287 288 288 288 288 287 287 286 285 285 285 285 285 285 285 284 284 284 283 283 282 282 281 281 281 280 280 280 281 281 281 281 281 282 282 282 282 283
293 294 295 296 296 296 295 295 294 294 294 294 294 294 294 294 294 294 294 294 294 293 292 291 290 290 289 289 288 287 287 287 288 288 288 288 287 287 286 286 285 285 285 284 284 284 284 284 283 283 282 282 281 281 280 280 279 279 280 280 280 280 281 281 282 282 282 282 283
294 295 296 296 295 295 294 294 294 294 294 294 294 294 294 294 294 294 293 293 292 291 290 289 289 289 289 288 287 287 287 288 289 288 288 287 287 286 286 286 286 285 284 284 283 283 283 283 283 282 281 280 280 280 279 279 279 279 279 279 279 280 280 281 281 281 282 282 282
295 295 295 295 294 294 294 294 294 294 294 294 294 294 294 293 293 293 292 290 289 289 289 289 289 289 288 287 287 287 288 288 288 287 287 286 286 286 286 286 286 285 284 283 282 282 283 283 282 281 280 279 279 278 278 279 279 279 279 278 279 279 280 280 280 280 281 281 281
294 294 294 294 294 294 295 295 294 294 294 295 294 294 293 292 291 290 289 289 289 289 288 288 288 288 288 288 287 287 287 287 286 286 285 285 285 286 286 285 284 283 283 283 284 284 284 281 280 279 279 278 278 278 279 279 278 278 278 278 278 278 279 279 279 279 280 280 280
293 293 293 294 294 294 295 295 295 294 294 294 293 293 292 290 289 288 288 288 288 288 288 288 288 288 288 288 287 287 286 286 285 284 284 283 284 284 284 283 282 282 283 284 288 289 287 283 282 280 279 279 279 279 279 279 278 278 278 278 278 278 278 278 278 279 279 279 279
293 293 293 293 294 294 294 294 294 294 294 293 292 291 289 288 289 289 288 288 287 287 288 288 288 288 287 287 286 286 286 285 284 283 283 283 283 283 282 282 281 282 284 287 289 289 289 288 286 283 280 279 278 278 278 278 278 278 277 277 277 277 277 277 278 278 278 279 279
292 292 293 293 293 293 293 294 294 293 292 291 290 289 289 289 289 288 287 287 287 287 287 287 287 287 287 287 286 285 285 284 283 283 283 283 283 282 281 281 281 282 285 289 289 289 288 288 287 285 283 279 278 278 277 277 277 277 277 276 276 276 277 277 277 278 278 279 279
292 292 292 292 292 292 292 292 291 290 289 288 288 289 289 288 287 287 287 287 287 287 287 286 287 287 287 287 286 285 284 283 283 283 283 283 282 281 281 281 281 283 286 289 289 288 288 287 287 286 284 280 278 277 277 276 276 276 276 276 276 276 276 277 277 278 278 278 279
291 291 290 290 290 290 289 288 287 287 287 287 287 287 287 287 287 287 287 287 286 286 286 286 287 287 287 287 286 285 284 284 283 283 282 281 281 280 280 281 281 283 287 289 288 288 287 287 286 286 285 283 279 277 275 275 275 275 276 276 276 276 277 277 278 278 278 278 279
291 290 290 289 289 288 287 287 287 287 287 287 287 287 287 286 286 286 286 285 285 286 286 287 287 287 287 286 286 285 284 283 283 282 282 281 281 280 280 281 281 283 287 289 288 287 287 286 286 286 285 284 280 277 275 275 275 275 275 276 276 276 276 277 277 278 278 279 279
290 289 289 288 287 287 286 286 286 286 286 286 286 286 286 285 285 285 285 285 285 285 286 286 286 285 285 285 284 284 283 283 283 282 282 281 281 281 281 281 281 283 286 288 287 287 286 286 286 286 285 284 281 277 275 275 275 275 275 275 276 276 276 277 277 278 278 278 278
289 288 287 287 286 286 285 286 286 286 286 286 286 285 285 285 285 285 285 285 285 285 285 285 284 284 283 283 283 283 283 283 283 283 282 282 281 281 281 281 282 283 285 288 287 287 287 286 286 285 285 285 281 278 276 275 275 275 275 275 275 276 276 277 277 277 277 278 278
288 288 287 286 285 286 286 286 286 286 286 285 285 285 284 284 284 284 284 284 284 284 284 283 283 283 283 283 283 283 284 284 283 283 283 282 282 282 282 281 282 283 285 287 287 287 287 286 286 285 285 285 281 278 275 274 274 275 275 275 275 276 276 276 277 277 277 277 278
287 287 286 285 286 286 286 286 285 285 284 284 284 284 284 284 284 284 284 284 284 284 284 283 283 283 283 283 284 284 284 283 283 283 283 283 283 282 282 281 282 284 287 287 287 287 287 286 286 285 285 285 280 277 275 274 274 274 274 275 275 276 276 276 276 277 277 277 277
287 286 286 285 287 287 286 285 284 284 284 284 284 285 285 285 285 285 284 284 284 284 283 283 283 283 283 284 285 284 284 283 283 283 282 282 282 282 282 282 282 285 287 287 287 287 287 286 286 286 285 283 279 276 274 274 274 274 274 274 275 275 275 276 276 276 276 277 277
287 286 285 286 287 287 286 284 284 284 284 285 285 285 286 286 286 285 285 285 284 283 282 282 282 283 283 284 284 284 284 283 283 282 282 282 282 282 282 281 281 283 286 287 288 287 287 286 286 286 285 281 277 275 274 274 274 274 274 274 274 275 275 275 275 276 276 276 276
287 287 287 286 287 286 285 284 284 285 285 286 286 286 286 286 286 286 286 284 283 282 282 282 282 282 282 283 283 283 283 283 283 283 283 282 281 281 280 280 280 281 283 286 287 288 288 287 287 286 284 279 276 275 274 274 274 274 274 274 274 274 274 274 275 275 275 275 276
288 288 288 287 286 285 285 285 285 285 285 286 287 287 287 287 287 286 284 283 282 282 283 283 282 282 282 282 282 282 282 283 283 283 282 281 280 280 280 279 279 280 282 285 287 288 288 288 288 286 283 278 276 275 275 274 274 274 274 273 273 273 273 274 274 274 274 275 277
288 288 287 287 286 285 285 285 285 285 286 287 287 287 287 287 286 285 284 283 283 283 283 283 282 281 281 281 281 281 281 282 281 281 280 280 280 280 280 279 279 280 281 285 286 287 288 288 288 287 284 279 276 275 275 274 274 273 273 273 273 273 273 273 274 274 274 274 278
287 287 287 287 286 285 285 285 285 286 287 287 287 287 286 286 284 284 284 284 284 284 284 283 282 281 280 280 280 280 280 281 280 280 279 279 280 281 282 279 279 279 281 284 286 287 288 287 287 287 285 279 276 275 275 274 273 273 272 273 274 274 274 274 274 274 274 273 277
287 287 286 286 286 285 285 286 286 286 287 286 286 286 285 284 284 284 285 285 285 284 283 282 281 280 280 280 280 280 279 279 279 279 279 279 280 281 282 280 279 279 279 282 285 287 287 286 286 286 284 280 276 275 274 274 273 273 273 275 276 276 275 274 274 274 274 274 275
Wind_Speed
2 2 1 1 1 1 1 1 1 1 2 2 2 2 2 1 2 2 2 2 2 2 2 2 1 1 1 3 4 4 4 4 4 4 4 4 4 5 5 6 6 5 5 5 5 4 4 4 4 3 3 3 4 4 4 4 5 5 5 5 5 4 5 5 5 6 7 7 5
3 2 1 0 0 0 0 1 1 1 2 2 2 2 2 2 2 2 2 2 2 2 1 1 1 3 4 6 6 5 5 4 4 4 4 4 5 5 6 6 5 4 4 4 5 4 4 5 5 5 4 4 5 5 6 6 7 7 7 8 6 5 5 5 6 6 7 6 6
3 2 2 1 1 1 1 1 2 2 3 2 2 2 2 2 2 3 3 3 3 3 3 4 4 5 7 7 6 6 5 5 5 5 4 4 5 6 5 5 4 5 5 6 5 5 6 6 5 5 5 5 6 6 6 7 7 7 7 7 6 5 5 5 5 5 5 5 5
3 2 2 2 2 1 1 1 2 3 4 4 3 2 2 2 2 3 4 6 6 6 5 4 5 5 6 6 6 6 6 6 6 5 5 5 5 5 5 5 6 7 7 7 7 7 8 7 5 5 5 6 6 6 6 6 6 6 5 5 4 4 4 4 4 4 4 4 5
3 3 2 2 2 2 2 1 2 3 4 4 4 4 3 3 3 3 4 5 5 5 5 6 5 5 5 6 7 7 7 8 8 7 7 7 7 7 8 8 9 8 8 8 9 9 9 8 6 5 5 5 5 5 5 5 6 5 4 4 4 4 4 4 4 4 4 4 4
4 4 3 3 3 3 3 2 3 3 3 3 4 5 5 4 4 4 3 3 4 6 7 7 6 6 7 8 9 9 9 9 10 10 11 10 10 9 10 10 9 9 9 10 10 10 9 8 6 5 5 5 4 5 5 6 6 5 5 4 4 4 4 5 4 4 4 4 5
6 6 6 5 5 5 6 6 5 5 4 4 5 5 4 4 4 4 4 4 5 6 6 6 7 8 9 10 10 10 10 10 10 10 10 10 10 10 9 10 10 11 11 11 11 10 9 8 6 5 5 5 4 5 6 7 6 6 6 5 5 5 5 6 5 5 5 6 6
8 7 7 7 8 8 8 9 8 7 6 5 5 5 5 5 6 6 6 5 5 5 5 6 8 10 10 10 9 8 8 7 7 7 7 7 8 8 9 10 11 11 11 10 10 10 9 7 6 5 5 5 4 5 6 8 8 7 7 6 6 5 5 6 6 6 6 7 8
10 9 9 8 8 8 8 9 8 8 7 7 6 6 6 6 7 8 7 5 5 5 5 5 7 9 9 8 6 4 3 3 4 4 5 5 7 8 9 9 10 9 9 9 9 9 8 6 5 5 5 5 5 6 7 8 9 8 7 6 6 6 6 6 6 7 8 8 9
11 11 10 9 8 8 8 8 8 8 8 8 8 7 6 6 5 5 5 4 4 4 4 4 4 5 6 6 3 2 3 3 4 5 6 7 7 8 8 7 8 8 8 8 7 7 6 5 5 5 6 5 6 7 7 8 8 8 7 5 6 7 7 6 6 7 8 8 9
12 12 11 10 9 9 8 7 7 7 7 8 8 7 6 4 2 2 2 2 3 3 3 2 1 1 1 2 1 3 4 5 5 6 6 7 7 7 7 7 7 7 7 7 6 6 5 5 5 6 6 6 6 7 7 8 8 8 7 6 6 7 7 6 6 6 6 7 8
13 13 12 11 11 10 10 8 7 7 7 7 8 7 6 4 3 2 1 1 1 2 2 1 2 3 3 2 2 2 3 4 5 5 5 6 6 6 6 6 7 7 7 7 6 5 4 4 5 6 6 6 5 6 6 7 7 7 7 7 7 6 6 6 6 5 5 5 7
13 13 13 13 13 13 12 11 9 9 8 9 8 6 5 3 3 2 2 2 2 2 1 1 3 4 4 4 4 4 3 4 4 5 5 5 5 5 6 6 6 7 7 6 5 4 4 4 5 5 5 5 5 5 5 6 7 7 8 8 8 7 7 7 7 6 6 6 7
13 13 14 14 15 14 14 13 12 11 10 9 7 5 5 5 6 6 6 6 5 5 4 4 4 4 4 5 5 5 5 4 5 5 5 5 5 5 5 5 6 6 5 4 4 4 4 3 4 4 4 4 4 5 5 6 6 7 8 9 9 9 9 9 8 8 8 8 8
13 14 14 15 15 15 14 15 13 11 10 9 8 7 7 7 8 8 9 9 9 9 9 8 7 6 6 6 6 6 6 5 5 5 5 5 5 5 5 5 4 4 3 3 3 2 3 3 3 3 3 4 4 4 5 5 6 6 7 8 9 9 10 10 9 9 8 8 9
14 15 15 16 16 15 15 14 11 10 9 8 7 7 7 7 9 10 10 11 10 10 10 10 9 8 8 7 7 7 6 6 6 5 5 4 4 4 4 4 3 3 2 2 2 1 1 2 2 2 3 3 3 3 4 5 5 5 6 6 7 8 8 9 9 9 8 8 8
15 16 16 17 17 16 15 13 10 8 7 7 7 7 8 9 10 10 10 11 9 9 10 10 9 9 8 7 6 6 6 6 5 5 4 4 3 3 3 3 2 2 1 1 1 1 1 1 2 2 2 2 2 2 3 3 4 5 5 6 6 7 7 8 8 8 8 8 8
16 17 17 17 17 16 14 12 9 7 7 7 9 10 11 11 11 11 11 10 10 9 9 9 8 7 6 6 5 5 5 5 5 5 4 4 3 3 2 2 1 1 1 1 1 1 0 1 1 2 1 1 1 1 2 2 3 4 4 5 6 6 7 7 7 7 8 8 8
16 17 17 16 15 14 12 10 9 8 9 10 12 13 13 13 13 12 11 10 9 8 8 7 6 5 5 5 4 4 4 4 5 5 4 4 3 2 1 1 1 1 1 1 1 1 1 1 2 2 1 1 0 1 1 2 2 3 4 5 5 6 7 7 7 7 8 8 8
16 16 15 15 14 13 12 11 11 11 12 13 14 14 14 14 13 12 10 8 6 6 7 6 6 6 5 5 5 4 4 3 4 4 4 4 3 2 2 1 1 1 1 2 2 2 2 2 2 2 2 1 0 1 1 2 2 3 4 5 5 6 7 7 8 8 8 9 9
15 14 14 14 14 13 12 12 13 14 14 14 13 13 12 11 10 8 6 4 5 5 6 6 6 7 6 6 5 5 4 3 4 4 4 4 3 3 2 2 1 1 1 2 2 2 2 2 2 2 2 1 0 1 1 2 3 4 5 5 6 6 7 7 8 9 9 10 10
13 13 13 13 13 12 12 13 14 13 13 12 10 8 7 7 5 3 3 4 4 4 5 6 6 6 6 6 5 5 4 4 4 4 4 4 3 3 2 1 1 1 1 2 2 2 2 2 2 2 2 1 1 1 2 2 3 4 5 6 7 7 7 8 8 9 10 10 10
12 12 11 11 11 11 12 12 12 11 9 7 6 4 3 1 2 3 4 3 3 3 4 4 5 5 6 5 5 5 5 4 4 4 4 4 3 3 2 1 1 1 1 2 2 2 2 1 1 2 2 2 1 1 2 3 4 5 6 7 7 8 8 8 9 9 10 10 10
10 10 9 8 9 10 10 9 7 6 5 3 1 1 2 3 4 3 3 3 3 4 4 4 4 5 5 6 6 5 5 5 5 5 5 5 4 3 2 1 1 1 1 2 1 1 1 1 2 2 2 2 1 2 2 3 4 5 6 7 7 8 9 9 9 10 10 10 10
8 7 7 7 8 8 6 4 3 3 2 2 3 4 4 4 3 3 3 4 4 4 4 5 5 5 5 5 5 5 5 5 4 4 4 4 3 2 2 1 1 1 1 1 2 4 5 5 4 3 2 1 1 2 2 3 3 4 5 6 7 8 9 10 10 10 10 10 10
6 6 6 6 7 6 5 3 3 3 3 3 3 3 3 3 3 3 3 4 4 5 5 5 5 5 4 4 4 4 4 4 4 4 3 3 2 2 2 2 2 1 1 3 5 6 7 6 5 4 2 1 1 1 2 3 3 4 4 5 6 7 8 9 10 10 10 10 11
5 5 5 6 6 7 6 3 3 3 3 3 3 3 4 4 4 4 4 4 5 5 5 5 5 5 4 3 4 4 4 4 4 3 2 1 1 2 2 2 1 1 2 4 6 6 6 6 5 4 3 1 1 1 1 2 3 4 4 4 5 6 7 8 10 10 11 10 11
4 5 5 5 5 6 5 3 3 3 4 4 4 4 4 4 4 4 5 5 6 6 5 5 5 4 4 3 4 4 4 4 3 2 1 1 1 1 2 2 1 1 3 5 6 6 5 5 4 3 3 2 1 1 1 2 3 3 3 3 4 5 6 7 8 9 10 10 11
4 5 5 5 4 4 4 3 4 4 4 4 4 4 4 4 5 5 6 6 6 6 5 5 4 4 4 4 4 4 4 3 3 2 1 1 1 2 2 2 1 2 4 6 6 6 5 4 4 3 3 3 2 2 2 2 2 2 2 3 3 4 5 6 7 7 8 9 10
5 5 5 5 4 4 4 3 3 4 4 4 4 4 5 5 5 6 6 6 6 5 5 5 4 5 5 5 5 4 4 4 3 2 1 2 2 2 3 3 1 2 4 6 6 6 5 5 4 4 4 3 3 3 3 3 2 2 2 2 3 4 5 5 6 7 8 8 9
5 5 4 5 4 4 4 3 3 4 4 4 4 5 5 5 6 6 6 5 5 5 5 5 5 6 6 6 5 5 5 4 3 3 2 2 2 2 3 4 2 1 4 6 6 6 6 6 5 5 5 5 4 3 3 3 2 2 2 2 3 4 4 4 5 6 7 8 9
6 4 4 4 4 4 4 4 5 5 5 5 4 4 4 5 5 5 5 5 5 5 5 6 6 7 7 7 6 6 6 5 4 3 2 2 2 2 3 4 3 1 3 6 6 6 6 7 6 6 6 6 5 4 4 3 3 2 2 2 3 3 4 3 4 5 6 8 9
6 4 3 3 3 4 5 5 6 6 5 4 4 4 4 5 5 5 5 5 5 5 5 6 6 7 7 7 6 6 6 5 5 4 3 2 2 2 3 4 3 1 2 6 7 8 8 7 7 7 7 7 6 4 3 3 2 1 1 2 3 3 3 3 3 4 5 6 7
6 4 3 3 4 5 6 6 6 5 4 3 4 5 5 5 6 6 6 6 5 5 5 5 5 5 5 5 5 5 5 5 5 4 4 3 3 3 4 4 3 1 2 6 8 9 9 8 8 8 8 8 5 4 3 2 1 1 1 2 3 3 3 2 3 3 4 5 6
5 4 3 3 4 5 6 6 5 4 3 4 6 6 7 6 7 7 6 6 5 4 4 4 4 5 5 5 5 5 5 6 5 5 4 4 4 5 4 4 4 3 3 4 7 9 10 10 9 9 8 6 4 2 2 2 1 1 2 2 3 3 3 2 2 3 3 4 5
5 4 4 4 5 6 6 5 4 4 5 6 7 7 7 7 7 6 6 5 4 4 4 4 5 5 5 5 5 4 5 5 6 6 5 5 5 5 5 4 4 5 6 5 6 7 9 10 10 10 8 5 3 2 2 1 1 2 2 3 3 3 3 3 2 2 3 3 4
5 5 5 5 6 5 5 3 3 5 6 6 7 7 7 7 7 6 6 4 4 4 4 4 4 5 5 5 4 4 4 5 5 6 6 6 5 5 5 5 5 6 7 8 8 8 8 8 9 9 7 3 2 2 2 1 1 2 2 3 3 3 3 2 2 2 3 3 5
5 5 5 5 5 4 3 3 4 5 5 5 5 5 6 6 6 6 5 3 3 3 4 4 4 4 4 4 4 5 5 5 5 6 6 6 5 5 5 5 5 6 7 9 10 10 10 9 7 6 6 3 2 2 2 1 2 2 3 3 3 3 3 2 2 2 3 4 7
6 5 5 5 4 4 4 4 4 4 4 4 4 5 6 6 5 5 4 3 3 3 3 3 3 3 3 3 4 5 5 6 6 5 5 5 5 5 5 5 6 7 8 10 10 10 10 11 9 5 2 3 2 2 2 1 2 3 3 3 3 3 3 2 2 3 4 5 9
5 5 4 4 4 4 4 4 3 3 3 4 5 6 6 5 5 5 5 4 4 3 3 3 3 3 3 3 4 5 6 6 6 5 4 4 5 6 6 5 6 7 8 10 9 9 9 11 12 10 6 1 2 1 1 1 2 3 3 3 3 3 3 3 3 4 4 5 8
5 4 3 3 3 3 4 4 4 4 4 5 5 5 5 5 5 5 5 4 4 4 3 2 2 3 3 4 4 5 5 5 5 5 4 4 5 6 7 6 6 7 7 8 8 9 11 12 13 12 9 2 0 0 0 1 2 3 3 4 4 4 4 4 4 4 5 5 6
Wind_Direction
287 268 235 192 176 177 192 220 219 213 208 207 224 232 233 227 237 236 229 215 217 224 230 230 233 254 1 29 33 33 29 19 7 355 345 336 325 318 312 308 307 309 315 323 331 338 344 348 352 357 2 4 4 6 10 14 14 14 13 11 5 360 356 354 348 341 335 328 323
322 316 322 82 87 79 14 309 279 261 246 231 229 230 233 235 246 250 248 235 226 231 255 287 331 4 14 16 18 17 13 4 357 350 342 333 323 317 313 312 319 332 346 356 360 6 11 12 16 18 18 16 16 16 15 14 14 14 13 11 7 3 360 358 353 348 343 338 337
342 347 0 23 24 16 352 320 304 297 291 284 276 268 263 267 282 290 294 296 309 316 320 322 352 14 20 13 6 360 355 346 342 340 336 330 323 321 322 330 354 13 22 24 22 25 28 24 25 26 25 22 22 20 16 12 13 13 11 7 3 359 354 348 344 341 338 336 337
358 1 5 4 356 340 319 306 311 311 309 307 309 311 316 329 338 335 331 329 324 321 324 345 12 25 25 16 3 353 346 338 336 335 333 331 334 339 351 15 35 39 36 32 30 31 31 28 29 30 29 27 29 25 18 10 11 10 6 359 355 350 344 337 332 329 326 325 328
355 355 353 345 329 314 306 310 320 317 315 315 324 334 347 6 14 9 357 343 333 340 0 20 27 29 26 21 8 357 348 341 340 341 343 347 358 11 26 41 48 46 40 34 32 31 30 26 29 30 29 27 27 23 17 11 9 5 359 352 348 343 335 328 321 319 320 321 326
344 343 342 340 335 330 329 335 334 329 326 331 344 353 1 12 22 24 19 7 8 13 16 17 19 20 20 18 11 3 357 353 351 351 354 1 14 25 34 42 43 42 38 34 32 29 26 24 25 25 24 22 20 17 15 14 10 4 357 351 347 343 340 336 329 325 324 325 327
344 344 344 343 344 344 344 345 344 344 346 355 4 10 15 18 23 26 29 32 31 24 17 11 11 13 15 15 12 9 6 4 1 360 2 10 20 28 34 36 36 37 36 33 30 26 23 22 21 18 15 12 11 11 13 15 12 6 360 354 352 351 348 344 339 336 332 330 327
348 346 345 345 347 348 347 346 345 344 346 351 2 13 22 23 20 19 20 25 28 25 19 14 9 8 9 9 11 12 12 9 7 9 14 19 23 27 30 32 35 36 35 34 30 26 23 21 18 14 9 8 8 10 11 13 11 7 1 355 353 354 353 349 347 344 340 336 331
351 348 347 347 350 350 348 346 344 343 342 344 353 5 17 23 17 10 4 2 10 17 19 15 4 358 354 353 2 12 19 20 19 22 24 26 26 29 31 32 34 35 36 36 33 29 25 23 18 14 10 9 8 8 8 9 7 4 360 354 351 350 351 350 349 348 346 343 338
352 349 348 347 347 348 347 345 341 337 336 337 343 352 4 14 12 360 346 339 350 358 6 8 355 338 326 321 331 5 32 37 32 28 27 28 28 30 31 33 34 37 38 39 36 32 29 27 21 16 13 12 8 6 6 6 4 0 356 352 348 346 346 346 348 349 348 346 340
350 348 346 344 342 342 341 337 332 328 326 327 330 331 331 330 320 295 290 311 327 328 324 321 335 293 281 292 351 30 37 36 31 28 27 27 28 28 30 32 36 39 41 41 40 37 34 32 26 20 16 13 10 6 3 2 360 356 352 347 345 343 342 342 345 347 346 343 337
347 345 343 340 338 336 334 330 324 318 314 312 311 306 297 282 261 242 235 316 301 288 278 246 122 114 110 101 68 46 36 34 33 32 30 28 27 27 29 31 36 40 43 43 42 41 39 37 33 26 19 14 11 6 1 358 357 353 348 343 341 339 337 336 339 340 339 337 332
344 342 340 338 336 334 331 328 322 316 309 304 300 296 295 303 325 348 360 356 328 312 321 58 85 91 93 91 85 76 62 47 41 38 34 29 27 25 26 30 35 40 43 44 43 44 45 44 41 34 25 17 12 4 359 357 355 351 345 340 337 335 333 331 332 330 329 327 326
343 342 340 338 337 335 332 328 324 320 317 314 317 327 343 348 353 358 1 360 357 359 7 26 46 63 75 79 78 72 63 54 45 39 34 29 27 25 26 29 35 40 43 44 46 50 54 55 51 43 33 20 10 2 357 355 352 347 343 338 336 333 331 329 327 324 322 320 319
344 343 341 339 338 335 332 329 328 330 335 341 351 357 359 1 9 15 17 14 10 7 6 9 14 24 39 51 55 56 53 49 43 36 30 26 26 26 26 28 32 37 42 44 48 57 66 72 64 55 41 25 10 0 354 351 347 343 339 335 333 331 328 326 324 321 318 315 312
347 345 343 340 337 334 332 331 336 345 354 2 6 6 9 20 29 33 32 27 18 11 5 3 3 6 13 23 33 38 39 37 34 29 23 18 20 22 24 26 28 32 37 41 44 54 73 86 80 69 54 33 13 358 350 345 341 336 332 329 328 326 324 322 321 318 315 311 307
348 345 342 338 335 334 335 341 349 357 3 9 18 27 33 36 41 43 43 37 28 16 7 2 360 359 0 5 16 24 28 27 24 19 13 9 12 18 23 24 23 24 29 31 24 29 55 93 91 83 71 50 16 353 341 336 332 327 323 321 320 318 317 316 315 314 311 309 304
346 342 339 336 335 339 345 354 359 3 9 19 32 39 41 41 43 45 46 43 31 17 4 356 352 350 351 356 5 15 22 20 14 9 4 0 6 14 21 20 9 359 359 357 333 302 227 142 113 102 93 78 23 333 324 322 319 315 314 312 311 310 310 309 309 308 307 305 301
343 340 339 339 344 352 359 3 5 11 21 32 38 40 41 40 41 43 44 42 27 8 351 339 335 335 341 351 360 9 14 14 6 358 352 348 353 357 359 337 302 298 308 306 283 255 216 168 142 131 127 127 258 300 304 308 308 308 306 306 306 305 305 306 305 305 304 302 299
343 344 346 353 3 9 11 9 13 21 28 35 36 38 39 40 42 43 41 31 5 340 326 321 323 329 337 348 356 360 1 360 351 342 334 331 331 322 301 268 262 271 285 289 276 254 218 175 157 149 147 148 210 298 306 311 312 309 307 305 305 305 305 305 306 306 305 303 301
351 356 4 13 19 19 16 14 18 23 27 30 31 33 36 40 43 40 27 349 320 312 313 321 328 334 339 344 347 346 340 333 326 319 316 314 309 296 277 253 246 264 289 298 287 264 225 184 167 156 147 135 125 316 315 320 319 316 313 311 309 309 308 309 309 309 308 307 305
6 14 21 25 25 22 20 18 18 19 20 22 21 24 30 38 33 7 311 288 299 313 326 332 332 333 334 336 333 327 319 310 309 307 307 309 303 293 280 258 250 304 316 309 297 275 243 202 166 140 120 102 58 352 334 333 328 323 320 317 316 315 314 314 313 311 310 309 307
22 26 28 27 25 23 21 19 16 13 11 12 14 18 22 14 289 271 272 289 322 335 335 330 326 324 323 321 317 313 309 309 312 315 317 318 315 312 312 334 26 359 326 304 287 271 255 218 116 92 82 75 43 3 343 340 335 330 326 323 321 320 318 316 314 313 311 310 309
29 28 25 22 22 22 20 16 10 2 355 351 337 283 258 254 260 273 301 337 341 334 325 318 314 312 311 309 309 311 315 320 323 324 325 326 329 332 342 9 19 353 322 302 295 287 116 101 81 71 66 59 34 2 346 345 338 332 328 324 323 321 319 317 315 313 312 311 310
28 22 18 14 15 14 11 2 345 323 300 267 241 242 251 263 286 318 339 342 331 321 313 309 306 304 304 307 312 319 325 328 327 326 326 328 332 339 350 5 3 350 345 359 51 79 89 92 89 84 76 59 28 2 351 345 334 327 324 322 321 320 319 317 315 313 312 310 309
18 12 7 4 360 355 346 321 298 282 269 255 254 267 290 319 336 340 335 324 313 308 306 306 306 306 307 312 320 326 328 325 323 321 322 323 328 339 350 355 352 1 45 75 83 87 89 90 91 92 94 86 46 9 350 332 320 316 316 318 320 320 319 317 315 313 311 309 308
5 358 354 351 344 339 333 311 296 288 286 290 313 330 340 342 336 327 317 309 306 307 310 312 312 311 311 316 322 322 319 315 315 314 310 299 324 343 346 340 346 29 88 99 102 101 99 97 98 101 107 112 91 31 327 303 299 303 309 317 320 319 317 314 313 312 311 310 308
348 343 341 342 336 334 333 325 323 325 329 336 340 339 334 327 320 313 310 309 312 315 318 318 315 314 316 320 318 314 310 308 306 301 293 283 335 344 339 329 342 81 109 116 118 117 116 117 119 120 123 128 132 195 248 263 276 287 302 318 321 318 314 312 312 312 312 312 313
332 332 336 340 334 333 338 349 351 347 340 334 328 321 316 311 311 312 315 318 321 321 319 315 315 319 323 323 319 316 313 308 300 294 298 330 342 337 329 325 353 106 122 131 135 137 138 143 146 148 148 148 168 204 226 237 251 269 294 316 317 314 312 312 314 316 318 319 321
324 331 338 343 341 342 345 349 341 331 320 313 308 306 307 311 315 318 320 321 320 316 314 314 321 327 328 326 324 322 318 310 305 309 328 346 340 330 324 323 349 119 136 150 155 158 162 168 172 176 180 184 197 211 222 227 234 254 284 307 307 306 308 311 317 322 326 329 330
327 335 344 348 345 340 333 323 314 306 300 296 297 302 310 317 318 318 318 317 315 315 318 326 334 335 333 331 329 325 320 315 317 324 334 342 334 327 323 326 349 109 145 167 175 180 184 188 192 197 204 212 218 222 224 226 228 240 267 289 295 298 304 313 324 332 335 337 336
332 339 348 350 340 327 314 305 299 293 289 289 296 306 315 319 316 315 315 316 320 326 332 339 341 338 334 332 329 326 323 323 324 326 329 337 338 337 336 335 353 71 155 182 193 199 203 206 208 212 217 225 230 231 230 228 228 235 253 272 281 289 299 316 332 339 341 340 338
336 339 345 342 325 312 303 297 291 288 288 293 306 318 324 324 323 324 326 327 332 336 339 339 337 334 331 328 327 328 328 328 328 329 332 344 357 360 354 345 358 40 167 196 208 214 217 218 219 222 228 235 239 239 234 232 232 240 258 272 277 284 296 316 334 342 343 340 336
339 337 335 324 309 300 295 292 290 292 301 320 333 338 339 339 339 338 336 334 333 333 332 331 330 328 327 327 330 333 335 336 337 338 343 353 5 8 2 348 351 351 209 211 220 225 227 227 227 229 234 240 244 243 241 243 249 265 273 277 279 283 293 311 331 340 340 337 332
340 334 322 308 299 294 292 291 296 310 336 354 354 353 351 348 344 338 330 324 322 322 324 325 326 327 329 332 338 343 346 346 345 345 348 355 1 1 354 341 333 322 293 242 234 234 234 234 233 234 236 241 244 244 240 244 257 264 269 273 278 281 287 299 318 330 334 331 325
336 326 313 302 296 293 292 294 313 345 3 6 2 357 351 343 333 323 315 309 313 318 322 323 328 332 335 338 344 348 352 352 350 349 350 353 356 352 344 332 321 315 310 295 269 251 242 238 237 237 238 240 242 241 240 240 248 254 259 264 268 270 273 282 300 315 322 322 316
327 319 311 303 299 297 300 315 353 8 11 7 360 350 337 325 314 306 302 304 314 319 322 325 330 333 335 340 344 347 351 354 354 352 351 351 351 346 338 327 316 310 308 309 304 293 276 256 241 235 232 233 233 239 244 249 254 258 260 261 261 260 262 269 288 307 313 312 308
318 315 312 310 312 318 333 358 10 11 6 358 344 326 312 304 300 299 299 303 312 317 320 325 328 328 330 337 343 346 348 352 354 353 351 348 345 341 336 329 318 310 308 310 311 312 311 308 279 245 224 212 219 231 245 260 269 271 269 265 264 264 266 275 297 310 310 304 305
310 311 315 323 335 346 355 1 359 354 345 331 312 301 296 295 296 298 300 301 306 313 318 323 321 320 325 339 349 350 349 349 351 352 350 345 340 338 337 331 321 315 313 315 316 321 329 341 338 322 256 201 208 221 239 262 279 282 281 278 280 286 296 310 319 317 309 301 305
304 309 319 334 342 345 343 335 327 320 312 302 296 294 294 295 297 300 303 305 309 314 317 321 318 320 330 347 355 353 348 345 346 347 347 341 338 339 339 332 324 319 318 320 326 336 350 1 357 352 344 214 207 214 237 280 297 298 298 299 312 323 329 329 325 318 310 302 304
300 307 318 330 330 324 317 311 307 303 299 294 293 293 295 297 301 307 311 314 315 317 320 325 325 330 340 354 358 356 351 344 340 339 339 341 340 340 338 332 327 323 322 325 338 353 4 7 359 354 351 345 318 175 358 351 328 322 322 329 338 341 337 329 323 317 312 306 303